�������l�o���
Date,Time,MP-1(��Sv/h),MP-2(��Sv/h),MP-3(��Sv/h),MP-4(��Sv/h),MP-5(��Sv/h),MP-6(��Sv/h),MP-7(��Sv/h),MP-8(��Sv/h),����,����(m/s),���J
2023/09/17,00:00,0.530,0.802,0.491,0.995,0.705,0.322,0.572,0.531,�k,2.2,��
2023/09/17,00:10,0.530,0.804,0.490,0.992,0.705,0.323,0.572,0.533,�k�k��,1.4,��
2023/09/17,00:20,0.530,0.801,0.488,0.992,0.706,0.322,0.572,0.532,�k,2.9,��
2023/09/17,00:30,0.529,0.800,0.490,0.992,0.705,0.321,0.570,0.531,�k,3.6,��
2023/09/17,00:40,0.530,0.798,0.491,0.993,0.705,0.321,0.571,0.532,�k�k��,2.8,��
2023/09/17,00:50,0.528,0.801,0.490,0.993,0.705,0.321,0.572,0.533,�k�k��,1.7,��
2023/09/17,01:00,0.530,0.802,0.489,0.993,0.704,0.322,0.572,0.532,�k�k��,1.7,��
2023/09/17,01:10,0.528,0.802,0.489,0.992,0.705,0.321,0.571,0.534,�k�k��,2.2,��
2023/09/17,01:20,0.530,0.798,0.490,0.992,0.705,0.321,0.571,0.530,�k�k��,2.8,��
2023/09/17,01:30,0.528,0.801,0.490,0.995,0.704,0.321,0.571,0.530,�k�k��,3.0,��
2023/09/17,01:40,0.530,0.802,0.490,0.992,0.705,0.321,0.572,0.531,�k�k��,3.8,��
2023/09/17,01:50,0.529,0.800,0.490,0.993,0.703,0.321,0.572,0.532,�k�k��,3.2,��
2023/09/17,02:00,0.529,0.801,0.491,0.992,0.705,0.319,0.573,0.531,�k��,3.7,��
2023/09/17,02:10,0.529,0.802,0.489,0.992,0.707,0.321,0.572,0.530,�k�k��,3.6,��
2023/09/17,02:20,0.530,0.802,0.491,0.991,0.705,0.322,0.571,0.532,�k�k��,4.5,��
2023/09/17,02:30,0.530,0.800,0.490,0.992,0.705,0.321,0.572,0.531,�k�k��,3.9,��
2023/09/17,02:40,0.530,0.801,0.489,0.991,0.704,0.321,0.574,0.531,�k�k��,4.0,��
2023/09/17,02:50,0.529,0.800,0.491,0.994,0.705,0.321,0.571,0.533,�k�k��,4.0,��
2023/09/17,03:00,0.531,0.801,0.489,0.993,0.706,0.320,0.573,0.531,�k�k��,3.8,��
2023/09/17,03:10,0.530,0.802,0.490,0.994,0.705,0.321,0.571,0.530,�k�k��,3.7,��
2023/09/17,03:20,0.530,0.801,0.490,0.991,0.704,0.321,0.574,0.531,�k�k��,3.9,��
2023/09/17,03:30,0.529,0.803,0.491,0.991,0.704,0.320,0.571,0.531,�k�k��,4.0,��
2023/09/17,03:40,0.528,0.802,0.490,0.992,0.704,0.322,0.572,0.532,�k�k��,3.5,��
2023/09/17,03:50,0.531,0.800,0.490,0.994,0.705,0.320,0.571,0.531,�k�k��,3.6,��
2023/09/17,04:00,0.529,0.801,0.490,0.993,0.704,0.321,0.572,0.532,�k�k��,3.4,��
2023/09/17,04:10,0.531,0.800,0.489,0.993,0.703,0.320,0.573,0.531,�k��,2.8,��
2023/09/17,04:20,0.529,0.799,0.491,0.993,0.705,0.321,0.572,0.532,�k��,3.1,��
2023/09/17,04:30,0.529,0.799,0.490,0.993,0.704,0.321,0.571,0.532,�k��,2.3,��
2023/09/17,04:40,0.529,0.797,0.492,0.993,0.704,0.321,0.572,0.532,�k��,2.6,��
2023/09/17,04:50,0.528,0.801,0.491,0.993,0.705,0.321,0.572,0.535,�k�k��,3.2,��
2023/09/17,05:00,0.529,0.800,0.488,0.994,0.704,0.320,0.571,0.531,�k�k��,2.9,��
2023/09/17,05:10,0.529,0.801,0.490,0.992,0.705,0.321,0.571,0.532,�k�k��,3.3,��
2023/09/17,05:20,0.529,0.802,0.492,0.992,0.705,0.322,0.572,0.532,�k�k��,2.8,��
2023/09/17,05:30,0.529,0.801,0.490,0.993,0.706,0.321,0.572,0.533,�k��,2.6,��
2023/09/17,05:40,0.528,0.799,0.491,0.992,0.705,0.321,0.571,0.531,�k�k��,3.0,��
2023/09/17,05:50,0.529,0.800,0.489,0.993,0.703,0.322,0.573,0.532,�k��,2.6,��
2023/09/17,06:00,0.530,0.801,0.489,0.992,0.707,0.321,0.573,0.531,�k�k��,2.3,��
2023/09/17,06:10,0.530,0.801,0.488,0.992,0.704,0.321,0.570,0.532,�k�k��,3.0,��
2023/09/17,06:20,0.530,0.802,0.491,0.993,0.704,0.322,0.573,0.533,�k�k��,3.4,��
2023/09/17,06:30,0.529,0.800,0.492,0.995,0.706,0.320,0.573,0.532,�k�k��,3.9,��
2023/09/17,06:40,0.530,0.802,0.490,0.992,0.706,0.322,0.571,0.531,�k�k��,3.6,��
2023/09/17,06:50,0.530,0.803,0.491,0.993,0.706,0.322,0.574,0.533,�k�k��,3.0,��
2023/09/17,07:00,0.530,0.801,0.490,0.992,0.704,0.321,0.572,0.531,�k�k��,3.9,��
2023/09/17,07:10,0.529,0.801,0.489,0.992,0.705,0.322,0.573,0.531,�k,2.5,��
2023/09/17,07:20,0.532,0.803,0.490,0.993,0.706,0.321,0.573,0.533,�k�k��,2.8,��
2023/09/17,07:30,0.530,0.800,0.490,0.993,0.706,0.322,0.572,0.533,�k,2.0,��
2023/09/17,07:40,0.530,0.798,0.491,0.992,0.704,0.322,0.574,0.532,�k,1.7,��
2023/09/17,07:50,0.529,0.800,0.489,0.994,0.706,0.321,0.573,0.532,�k,2.2,��
2023/09/17,08:00,0.530,0.800,0.489,0.991,0.704,0.319,0.573,0.532,�k�k��,1.9,��
2023/09/17,08:10,0.529,0.800,0.489,0.994,0.704,0.320,0.575,0.531,�k,2.0,��
2023/09/17,08:20,0.530,0.798,0.490,0.992,0.706,0.320,0.573,0.533,�k��,2.3,��
2023/09/17,08:30,0.530,0.800,0.491,0.992,0.705,0.321,0.573,0.532,��,2.8,��
2023/09/17,08:40,0.531,0.801,0.490,0.991,0.706,0.320,0.573,0.533,�k��,1.7,��
2023/09/17,08:50,0.531,0.800,0.490,0.992,0.706,0.321,0.572,0.533,�k��,2.0,��
2023/09/17,09:00,0.529,0.797,0.489,0.991,0.707,0.321,0.571,0.532,�k��,1.4,��
2023/09/17,09:10,0.531,0.799,0.488,0.994,0.705,0.321,0.573,0.531,�k��,1.7,��
2023/09/17,09:20,0.530,0.798,0.489,0.994,0.703,0.321,0.572,0.534,���k��,2.0,��
2023/09/17,09:30,0.529,0.800,0.490,0.990,0.705,0.321,0.573,0.531,���k��,1.7,��
2023/09/17,09:40,0.531,0.799,0.490,0.990,0.705,0.321,0.573,0.533,��,1.7,��
2023/09/17,09:50,0.530,0.800,0.490,0.995,0.704,0.321,0.574,0.533,���k��,1.5,��
2023/09/17,10:00,0.532,0.802,0.490,0.993,0.706,0.321,0.574,0.534,��,1.9,��
2023/09/17,10:10,0.530,0.802,0.489,0.991,0.706,0.320,0.574,0.531,��,1.7,��
2023/09/17,10:20,0.531,0.801,0.491,0.993,0.706,0.322,0.574,0.531,��,2.3,��
2023/09/17,10:30,0.530,0.804,0.491,0.992,0.706,0.321,0.573,0.530,��,3.1,��
2023/09/17,10:40,0.529,0.801,0.489,0.991,0.708,0.320,0.573,0.530,���쓌,3.3,��
2023/09/17,10:50,0.531,0.802,0.491,0.991,0.706,0.322,0.573,0.530,��,2.5,��
2023/09/17,11:00,0.530,0.800,0.490,0.992,0.706,0.322,0.571,0.530,���쓌,2.9,��
2023/09/17,11:10,0.530,0.802,0.488,0.993,0.705,0.321,0.571,0.529,���쓌,2.5,��
2023/09/17,11:20,0.531,0.802,0.489,0.993,0.706,0.322,0.574,0.531,���쓌,3.3,��
2023/09/17,11:30,0.530,0.802,0.491,0.992,0.706,0.321,0.572,0.530,���쓌,2.5,��
2023/09/17,11:40,0.530,0.801,0.491,0.993,0.706,0.321,0.571,0.532,���쓌,3.0,��
2023/09/17,11:50,0.528,0.801,0.489,0.992,0.705,0.321,0.572,0.531,�쓌,2.9,��
2023/09/17,12:00,0.528,0.802,0.490,0.991,0.708,0.322,0.572,0.530,���쓌,2.2,��
2023/09/17,12:10,0.529,0.803,0.489,0.994,0.706,0.321,0.572,0.532,�쓌,2.8,��
2023/09/17,12:20,0.531,0.800,0.490,0.993,0.705,0.322,0.573,0.530,�쓌,2.3,��
2023/09/17,12:30,0.530,0.802,0.489,0.993,0.706,0.321,0.572,0.531,�쓌,3.4,��
2023/09/17,12:40,0.530,0.802,0.490,0.994,0.707,0.322,0.571,0.533,�쓌,3.7,��
2023/09/17,12:50,0.531,0.803,0.490,0.993,0.708,0.321,0.571,0.531,��쓌,2.9,��
2023/09/17,13:00,0.531,0.802,0.489,0.994,0.708,0.322,0.571,0.533,��쓌,4.6,��
2023/09/17,13:10,0.530,0.804,0.490,0.994,0.706,0.322,0.572,0.532,�쓌,4.6,��
2023/09/17,13:20,0.530,0.802,0.491,0.993,0.708,0.322,0.573,0.532,��쓌,5.2,��
2023/09/17,13:30,0.532,0.805,0.491,0.996,0.706,0.321,0.572,0.531,��쓌,5.9,��
2023/09/17,13:40,0.532,0.804,0.490,0.996,0.707,0.321,0.574,0.531,��쓌,5.6,��
2023/09/17,13:50,0.531,0.805,0.492,0.997,0.709,0.322,0.573,0.532,��쓌,6.2,��
2023/09/17,14:00,0.532,0.803,0.490,0.996,0.708,0.322,0.574,0.532,��쓌,6.3,��
2023/09/17,14:10,0.531,0.802,0.491,0.998,0.707,0.321,0.574,0.531,��쓌,6.3,��
2023/09/17,14:20,0.531,0.803,0.491,0.994,0.709,0.322,0.573,0.531,��쓌,7.3,��
2023/09/17,14:30,0.532,0.804,0.489,0.997,0.707,0.320,0.574,0.533,��쓌,7.7,��
2023/09/17,14:40,0.530,0.804,0.491,0.995,0.708,0.320,0.575,0.534,��쓌,7.3,��
2023/09/17,14:50,0.532,0.806,0.491,0.995,0.708,0.322,0.574,0.532,��쓌,7.0,��
2023/09/17,15:00,0.530,0.803,0.492,0.996,0.708,0.321,0.574,0.532,��쓌,7.3,��
2023/09/17,15:10,0.532,0.804,0.491,0.999,0.707,0.322,0.575,0.532,��,8.7,��
2023/09/17,15:20,0.530,0.804,0.489,0.996,0.709,0.320,0.574,0.532,��,9.2,��
2023/09/17,15:30,0.533,0.803,0.491,0.995,0.709,0.320,0.574,0.532,��,7.7,��
2023/09/17,15:40,0.531,0.805,0.490,0.998,0.709,0.320,0.574,0.534,��,7.7,��
2023/09/17,15:50,0.531,0.806,0.490,0.995,0.708,0.321,0.574,0.534,��,8.0,��
2023/09/17,16:00,0.531,0.804,0.492,0.994,0.711,0.320,0.573,0.533,��쓌,8.5,��
2023/09/17,16:10,0.533,0.805,0.491,0.995,0.710,0.321,0.574,0.531,��쓌,9.6,��
2023/09/17,16:20,0.531,0.804,0.491,0.995,0.709,0.321,0.572,0.533,��쓌,8.8,��
2023/09/17,16:30,0.531,0.803,0.491,0.994,0.708,0.322,0.574,0.530,��쓌,9.6,��
2023/09/17,16:40,0.531,0.805,0.489,0.996,0.709,0.321,0.572,0.531,��쓌,8.1,��
2023/09/17,16:50,0.531,0.803,0.492,0.994,0.706,0.321,0.571,0.532,��,8.3,��
2023/09/17,17:00,0.531,0.806,0.491,0.995,0.707,0.321,0.571,0.532,��,7.8,��
2023/09/17,17:10,0.531,0.803,0.491,0.998,0.710,0.321,0.571,0.533,��,8.2,��
2023/09/17,17:20,0.531,0.804,0.489,0.999,0.710,0.321,0.571,0.531,��,7.3,��
2023/09/17,17:30,0.530,0.805,0.491,0.997,0.708,0.322,0.572,0.532,��,7.7,��
2023/09/17,17:40,0.531,0.803,0.492,0.995,0.708,0.321,0.572,0.532,��,7.2,��
2023/09/17,17:50,0.532,0.804,0.491,0.994,0.710,0.322,0.571,0.531,��,6.6,��
2023/09/17,18:00,0.530,0.804,0.492,0.997,0.707,0.322,0.572,0.531,��,6.6,��
2023/09/17,18:10,0.532,0.805,0.492,0.993,0.710,0.322,0.572,0.531,��,6.3,��
2023/09/17,18:20,0.531,0.804,0.491,0.994,0.708,0.322,0.572,0.531,��,5.5,��
2023/09/17,18:30,0.531,0.805,0.491,0.996,0.709,0.321,0.572,0.531,��,6.4,��
2023/09/17,18:40,0.533,0.806,0.490,0.997,0.708,0.322,0.572,0.531,��,6.5,��
2023/09/17,18:50,0.533,0.804,0.493,0.995,0.710,0.323,0.573,0.532,��,5.2,��
2023/09/17,19:00,0.532,0.807,0.493,0.997,0.709,0.323,0.572,0.532,��,4.8,��
2023/09/17,19:10,0.532,0.807,0.492,0.997,0.710,0.322,0.572,0.532,��,3.5,��
2023/09/17,19:20,0.533,0.804,0.492,0.997,0.711,0.322,0.572,0.533,��,3.1,��
2023/09/17,19:30,0.531,0.806,0.491,0.996,0.712,0.323,0.573,0.532,��,4.7,��
2023/09/17,19:40,0.532,0.806,0.493,0.998,0.710,0.322,0.575,0.532,��,4.1,��
2023/09/17,19:50,0.531,0.807,0.491,0.997,0.711,0.323,0.573,0.531,��,4.4,��
2023/09/17,20:00,0.534,0.806,0.491,0.997,0.710,0.322,0.573,0.532,��,4.2,��
2023/09/17,20:10,0.532,0.807,0.491,0.996,0.710,0.323,0.572,0.531,��쓌,4.4,��
2023/09/17,20:20,0.532,0.806,0.493,0.997,0.710,0.322,0.573,0.530,��쓌,4.2,��
2023/09/17,20:30,0.532,0.806,0.492,0.998,0.710,0.322,0.571,0.533,��쓌,4.8,��
2023/09/17,20:40,0.532,0.806,0.491,0.995,0.711,0.322,0.573,0.531,��,4.8,��
2023/09/17,20:50,0.532,0.806,0.493,0.997,0.710,0.323,0.572,0.532,��,4.4,��
2023/09/17,21:00,0.533,0.806,0.493,0.997,0.710,0.322,0.575,0.531,��,4.2,��
2023/09/17,21:10,0.533,0.806,0.491,0.997,0.711,0.322,0.572,0.532,��,3.4,��
2023/09/17,21:20,0.533,0.805,0.493,0.995,0.710,0.323,0.574,0.531,��,1.5,��
2023/09/17,21:30,0.531,0.807,0.492,0.995,0.710,0.321,0.573,0.533,��,2.2,��
2023/09/17,21:40,0.534,0.807,0.493,0.996,0.711,0.322,0.572,0.532,��,2.6,��
2023/09/17,21:50,0.532,0.806,0.492,0.998,0.711,0.322,0.575,0.534,��,2.6,��
2023/09/17,22:00,0.531,0.805,0.491,0.994,0.710,0.323,0.572,0.532,��,4.6,��
2023/09/17,22:10,0.533,0.806,0.493,0.997,0.711,0.323,0.574,0.531,��,5.2,��
2023/09/17,22:20,0.534,0.807,0.493,0.996,0.710,0.323,0.574,0.531,��,4.4,��
2023/09/17,22:30,0.534,0.808,0.492,0.996,0.710,0.323,0.573,0.533,��,3.6,��
2023/09/17,22:40,0.534,0.808,0.492,0.998,0.712,0.322,0.572,0.533,��,5.0,��
2023/09/17,22:50,0.532,0.807,0.492,0.996,0.710,0.322,0.573,0.531,��,6.0,��
2023/09/17,23:00,0.532,0.807,0.493,0.995,0.709,0.323,0.573,0.533,��,6.2,��
2023/09/17,23:10,0.533,0.805,0.492,0.997,0.711,0.323,0.572,0.532,��,5.6,��
2023/09/17,23:20,0.533,0.807,0.492,0.997,0.710,0.323,0.573,0.533,��,5.7,��
2023/09/17,23:30,0.534,0.806,0.492,0.998,0.711,0.324,0.573,0.531,��,6.0,��
2023/09/17,23:40,0.534,0.805,0.493,0.998,0.711,0.323,0.572,0.533,��,6.4,��
2023/09/17,23:50,0.533,0.806,0.493,0.996,0.710,0.322,0.573,0.532,��쐼,5.6,��
